Regional Weather Roundup
Issued by NWS

Home | Current Version | Previous Version | Text Only | Print | Product List | Glossary Off
Versions: 1 2 3 4 5 6 7 8 9 10 11 12 13 14 15 16 17 18 19 20 21 22 23 24 25 26 27 28 29 30 31 32 33 34 35 36 37 38 39 40 41 42 43 44 45 46 47 48 49 50

000
ASUS45 KTFX 261904
RWRMT
MONTANA HOURLY WEATHER ROUNDUP
NATIONAL WEATHER SERVICE GREAT FALLS MT
1204 PM MST MON JAN 26 2015

NOTE: "FAIR" INDICATES FEW OR NO CLOUDS BELOW 12000 FEET WITH NO
SIGNIFICANT WEATHER AND/OR OBSTRUCTIONS TO VISIBILITY.

* THESE STATIONS ARE NOT UNDER NWS QUALITY CONTROL. THEY DO NOT
   REPORT WEATHER SUCH AS PRECIPITATION OR FOG.

MTZ001>007-043-262000-
WEST OF THE DIVIDE
CITY           SKY/WX    TMP DP  RH WIND       PRES   REMARKS
KALISPELL      SUNNY     32  32 100 CALM      30.07F
MISSOULA       SUNNY     34  30  85 CALM      30.16F
BUTTE          SUNNY     43  30  60 CALM      30.21F
MULLAN PASS    SUNNY     50  27  41 S8G20     30.12F
* ANACONDA     SUNNY     57  27  32 SE10       N/A
* ESSEX        N/A       39  32  76 SE1        N/A
* LINCOLN      N/A       33  25  72 SE1        N/A
* LOOKOUT PASS N/A       54  31  42 SE6        N/A
* POLSON       N/A       46  31  56 S2         N/A
* RONAN APT    SUNNY     34  34 100 N/A        N/A
* SEELEY LAKE  N/A       49  31  50 N/A        N/A
* THOMP F APT  SUNNY     45  33  63 S2         N/A
$$

MTZ008-052>055-262000-
SOUTHWEST MONTANA
CITY           SKY/WX    TMP DP  RH WIND       PRES   REMARKS
BOZEMAN        PTCLDY    41  32  70 CALM      30.20F
DILLON         SUNNY     48  28  46 S13       30.23F
* W YELLOWSTON SUNNY     32  27  82 NW1        N/A
* THREE FORKS  SUNNY     46  37  71 NE5        N/A
* BOULDER HILL N/A       48  24  39 SW14       N/A
* MONIDA PASS  N/A       31  31 100 SE14       N/A   WCI  21
* RAYNOLDS PAS N/A       34  15  46 SE15G20    N/A   WCI  24
* WHITEHALL    N/A       51  31  46 NW6G11     N/A
* WISE RIVER   N/A       34  25  70 W4         N/A
$$

MTZ009>010-012-014-046-048-049-054-262000-
EAST SLOPES AND CENTRAL MONTANA
CITY           SKY/WX    TMP DP  RH WIND       PRES   REMARKS
CUT BANK       PTSUNNY   59  30  33 SW23      29.96F
GREAT FALLS    PTSUNNY   64  28  26 SW22G31   30.02F
HELENA         PTCLDY    45  34  65 CALM      30.16F
MALMSTROM AFB  PTSUNNY   63  28  27 SW22G29   30.02F
* DEARBORN     N/A       55  29  37 SW12       N/A
* EAST GLACIER N/A       54  26  34 W14G24     N/A
* MONARCH      N/A       57  22  26 SW12G20    N/A
* PENDROY      N/A       58  30  35 SW8G14     N/A
* ROGERS PASS  N/A       50  24  36 E6G12      N/A
* SWEET GRASS  N/A       54  28  37 SW22G29    N/A
$$

MTZ011-013-016-021-035-040-045-047-050-051-262000-
NORTH CENTRAL MONTANA
CITY           SKY/WX    TMP DP  RH WIND       PRES   REMARKS
HAVRE          CLOUDY    50  34  54 SW23      29.93F
LEWISTOWN      CLOUDY    48  30  50 SW17      30.05F
* N BAR RANCH  SUNNY     63  21  20 CALM      30.06F
* CHESTER      N/A       40  33  76 N/A        N/A
* DENTON       N/A       52  33  48 SW11       N/A
* GEYSER       N/A       68  26  21 SW23G34    N/A
* JUDITH GAP   N/A       52  28  40 E11        N/A
* LOMA         N/A       54  34  47 W11        N/A
$$

MTZ017>020-022>027-061-062-262000-
NORTHEAST MONTANA
CITY           SKY/WX    TMP DP  RH WIND       PRES   REMARKS
GLASGOW        CLOUDY    43  36  76 SE5       29.96F
GLENDIVE       PTCLDY    46  36  68 SE7       29.99F
JORDAN         CLOUDY    50  36  59 NW6       29.96F
SIDNEY         PTCLDY    46  36  68 S6        30.00F
WOLF POINT     PTSUNNY   45  36  71 W6        29.97F
* BEAVER HILL  N/A       48  34  59 S2         N/A
* CIRCLE       N/A       49  40  71 SW1        N/A
* LINDSAY DVD  N/A       54  33  45 W12        N/A
* NAVAJO       N/A       49  32  52 N/A        N/A
* SACO         N/A       44  36  74 E1         N/A
$$

MTZ028>042-056>058-262000-
SOUTHCENTRAL AND SOUTHEAST MONTANA
CITY           SKY/WX    TMP DP  RH WIND       PRES   REMARKS
BAKER          PTSUNNY   50  36  59 CALM      30.01F
BILLINGS       CLOUDY    54  28  37 SW23G31   30.09F
LIVINGSTON     SUNNY     63  25  24 SW25G37   30.14S
MILES CITY     PTSUNNY   52  36  55 SW7       30.01F
* LAUREL APT   CLOUDY    52  27  38 SW9        N/A
* ROUNDUP APT  CLOUDY    55  27  34 S11G17     N/A
* ALZADA       N/A       59  34  39 SW9        N/A
* HYSHAM       N/A       53  27  37 W8G17      N/A
* REED POINT   N/A       51  34  52 E2         N/A
* ROSCOE HILL  N/A       64  18  17 S4G10      N/A
$$

REGIONAL REPORTS...DAKOTAS
CITY           SKY/WX    TMP DP  RH WIND       PRES   REMARKS
WILLISTON      SUNNY     46  30  54 W5        29.96F
DICKINSON      SUNNY     48  32  54 W10       29.97F
CROSBY         SUNNY     45  34  65 W7        29.95F
WATFORD CITY   SUNNY     46  32  58 W9        29.96F
BISMARCK       SUNNY     48  28  46 N12       29.96F
GRAND FORKS    CLOUDY    34  28  79 N25G32    29.86R WCI  21
FARGO          CLOUDY    43  32  65 NW21      29.84R
BUFFALO SD     PTCLDY    59  34  39 W12       29.95F
RAPID CITY     SUNNY     66  28  24 NW24      30.05F
$$

REGIONAL REPORTS...WYOMING/IDAHO/WASHINGTON
CITY           SKY/WX    TMP DP  RH WIND       PRES   REMARKS
GILLETTE       SUNNY    N/A N/A N/A N/A       30.11F
SHERIDAN       PTCLDY    64  30  28 CALM      30.09F
CODY           PTSUNNY   37  28  70 NE5       30.20F WCI  33
YELLOWSTONE LA SUNNY     21  16  81 CALM      30.43F
SALMON         CLOUDY   N/A N/A N/A CALM      30.35F VSB M1/4
MULLAN PASS    SUNNY     50  27  41 S8G20     30.12S
SAND POINT     FOG       36  36 100 CALM      30.11S VSB M1/4
SPOKANE        FOG       37  37 100 E5        30.08R VSB M1/4 WCI  33

$$



USA.gov is the U.S. government's official web portal to all federal, state and local government web resources and services.